Weather History for Fort Myers, FL

Change the Weather History Date:

Friday, November 8, 2013

  Actual Average Record
Temperature  
Mean Temperature 75 °F 73 °F  
Max Temperature 84 °F 83 °F 89 °F (1986)
Min Temperature 66 °F 63 °F 46 °F (1951)
Degree Days  
Heating Degree Days 0 0  
Month to date heating degree days 0 0  
Since 1 July heating degree days 0 2  
Cooling Degree Days 10 8  
Month to date cooling degree days 81 71  
Year to date cooling degree days 3704 3719  
Growing Degree Days 24 (Base 50)    
Moisture  
Dew Point 65 °F    
Average Humidity 76    
Maximum Humidity 93    
Minimum Humidity 58    
Precipitation  
Precipitation 0.00 in 0.08 in 2.07 in (1962)
Month to date precipitation T 0.69  
Year to date precipitation 51.86 52.95  
Sea Level Pressure  
Sea Level Pressure 30.03 in    
Wind  
Wind Speed 11 mph (NE)    
Max Wind Speed 20 mph    
Max Gust Speed 25 mph    
Visibility 10 miles    
Events      
T = Trace of Precipitation, MM = Missing Value Source: NWS Daily Summary

Daily Weather History Graph

Daily Weather History Graph

Search for Another Location

Airport:

Trip Planner

Search our weather history database for the weather conditions in past years. The results will help you decide how hot, cold, wet, or windy it might be!

Date:

Astronomy

Nov. 08, 2013 Rise Set
Actual Time 6:41 AM EST 5:40 PM EST
Civil Twilight 6:17 AM EST 6:04 PM EST
Nautical Twilight 5:49 AM EST 6:32 PM EST
Astronomical Twilight 5:22 AM EST 6:59 PM EST
Moon 11:36 AM EST (11/8) 10:57 PM EST (11/8)
Length of Visible Light 11h 46m
Length of Day
10h 58m
Waxing Crescent, 33% of the Moon is Illuminated
Nov 8
Waxing Crescent
Nov 10
First Quarter
Nov 17
Full
Nov 25
Last Quarter
Dec 2
New

Hourly Weather History & Observations

Time (EST) Temp. Heat Index Dew Point Humidity Pressure Visibility Wind Dir Wind Speed Gust Speed Precip Events Conditions
12:53 AM 69.1 °F - 66.0 °F 90% 30.00 in 10.0 mi North 6.9 mph - N/A   Clear
1:53 AM 68.0 °F - 66.0 °F 93% 29.99 in 10.0 mi NNE 5.8 mph - N/A   Clear
2:53 AM 66.0 °F - 64.9 °F 96% 30.00 in 10.0 mi North 3.5 mph - N/A   Clear
3:53 AM 66.9 °F - 64.9 °F 93% 30.00 in 10.0 mi North 6.9 mph - N/A   Clear
4:53 AM 66.0 °F - 64.9 °F 96% 30.00 in 10.0 mi North 6.9 mph - N/A   Clear
5:53 AM 66.0 °F - 64.9 °F 96% 30.01 in 9.0 mi NNE 8.1 mph - N/A   Clear
6:53 AM 66.0 °F - 64.9 °F 96% 30.03 in 7.0 mi NNE 9.2 mph - N/A   Clear
7:53 AM 69.1 °F - 64.9 °F 87% 30.04 in 9.0 mi NE 8.1 mph - N/A   Clear
8:53 AM 73.0 °F - 64.9 °F 76% 30.05 in 10.0 mi ENE 12.7 mph 17.3 mph N/A   Clear
9:53 AM 75.9 °F - 64.9 °F 69% 30.05 in 10.0 mi ENE 13.8 mph - N/A   Clear
10:53 AM 79.0 °F - 66.0 °F 64% 30.04 in 10.0 mi NE 12.7 mph - N/A   Clear
11:53 AM 82.0 °F 84.5 °F 66.9 °F 60% 30.03 in 10.0 mi NNE 12.7 mph 19.6 mph N/A   Partly Cloudy
12:53 PM 82.0 °F 84.1 °F 66.0 °F 58% 30.00 in 10.0 mi ENE 10.4 mph 21.9 mph N/A   Partly Cloudy
1:53 PM 81.0 °F 83.0 °F 66.0 °F 60% 29.99 in 10.0 mi NE 15.0 mph 19.6 mph N/A   Mostly Cloudy
2:53 PM 82.9 °F 85.0 °F 66.0 °F 56% 29.99 in 10.0 mi NE 13.8 mph - N/A   Scattered Clouds
3:53 PM 81.0 °F 82.5 °F 64.0 °F 56% 29.99 in 10.0 mi NE 13.8 mph - N/A   Partly Cloudy
4:53 PM 79.0 °F - 64.0 °F 60% 30.01 in 10.0 mi NE 12.7 mph - N/A   Overcast
5:53 PM 78.1 °F - 64.0 °F 62% 30.02 in 10.0 mi NE 8.1 mph - N/A   Overcast
6:53 PM 77.0 °F - 64.9 °F 66% 30.04 in 10.0 mi NE 11.5 mph - N/A   Overcast
7:53 PM 73.9 °F - 64.9 °F 73% 30.06 in 10.0 mi NE 16.1 mph 21.9 mph N/A   Overcast
8:53 PM 72.0 °F - 64.9 °F 78% 30.07 in 10.0 mi NE 11.5 mph 19.6 mph N/A   Partly Cloudy
9:53 PM 71.1 °F - 64.9 °F 81% 30.08 in 10.0 mi NE 12.7 mph - N/A   Overcast
10:53 PM 70.0 °F - 64.9 °F 84% 30.07 in 10.0 mi NE 10.4 mph - N/A   Mostly Cloudy
11:53 PM 69.1 °F - 64.0 °F 84% 30.07 in 10.0 mi NE 10.4 mph - N/A   Overcast